This demonstration page uses our WeatherBlox Daily Observations layout. Learn more.

Left ArrowRight Arrow

Hourly Observations for September 29, 2018

Temp ( °F °C ) Dew Point ( °F °C ) Humidity (%) Winds ( mph kmh ) Pressure ( in mb ) Visibility ( mi km ) Precip ( " mm )
12:57 am 00:57 Cloudy 47 8.3 37 2.8 69 69 SE 8 13 30.30 1026 10 16 0.00 0.00
1:57 am 01:57 Cloudy 46 7.8 38 3.3 73 73 S 9 15 30.28 1025 10 16 0.00 0.00
2:51 am 02:51 Cloudy 46 8 37 3 71 71 S 14 22 30.27 1025 10 16 0.00 0.00
2:57 am 02:57 Cloudy 46 7.8 37 2.8 71 71 S 13 20 30.26 1025 10 16 0.00 0.00
3:17 am 03:17 Cloudy 46 8 37 3 71 71 SSE 12 19 30.27 1025 10 16 0.00 0.00
3:33 am 03:33 Cloudy 46 8 37 3 71 71 SSE 8 13 30.27 1025 10 16 0.00 0.00
3:57 am 03:57 Cloudy 46 7.8 37 2.8 71 71 SSE 8 13 30.24 1024 10 16 0.00 0.00
4:57 am 04:57 Cloudy 45 7.2 35 1.7 68 68 SSE 12 19 30.22 1023 10 16 0.00 0.00
5:57 am 05:57 Cloudy 45 7.2 35 1.7 68 68 SE 12 19 30.20 1023 10 16 0.00 0.00
6:57 am 06:57 Cloudy 45 7.2 34 1.1 66 66 SE 12 19 30.19 1022 10 16 0.00 0.00
7:57 am 07:57 Cloudy 43 6.1 39 3.9 86 86 SE 12 19 30.18 1022 8 13 0.00 0.00
8:06 am 08:06 Cloudy with Light Rain 43 6 39 4 87 87 SSE 9 15 30.21 1023 8 13 0.00 0.03
8:22 am 08:22 Cloudy 43 6 39 4 87 87 SSE 7 11 30.21 1023 10 16 0.00 0.03
8:57 am 08:57 Cloudy with Light Rain 42 5.6 41 5 96 96 SE 7 11 30.17 1022 3 5 0.00 0.03
9:57 am 09:57 Cloudy with Light Rain 43 6.1 42 5.6 97 97 SSE 10 17 30.16 1022 4 6 0.00 0.03
10:57 am 10:57 Cloudy 44 6.7 43 6.1 96 96 SSE 14 22 30.13 1020 10 16 0.00 0.03
11:57 am 11:57 Cloudy 46 7.8 44 6.7 93 93 S 15 24 30.10 1019 10 16 0.00 0.00
12:57 pm 12:57 Cloudy 47 8.3 45 7.2 93 93 S 14 22 30.08 1019 10 16 0.00 0.00
1:57 pm 13:57 Cloudy 49 9.4 46 7.8 90 90 SSW 10 17 30.06 1018 10 16 0.00 0.00
2:57 pm 14:57 Cloudy 50 10 46 7.8 86 86 S 6 9 30.04 1017 10 16 0.00 0.00
3:37 pm 15:37 Cloudy 52 11 46 8 82 82 SSE 3 6 30.03 1017 10 16 0.00 0.00
3:57 pm 15:57 Cloudy 52 11.1 47 8.3 83 83 S 5 7 30.03 1017 10 16 0.00 0.00
4:57 pm 16:57 Cloudy 51 10.6 47 8.3 86 86 S 3 6 30.03 1017 10 16 0.00 0.00
5:57 pm 17:57 Cloudy 52 11.1 47 8.3 83 83 SSE 5 7 30.03 1017 10 16 0.00 0.00
6:51 pm 18:51 Cloudy 52 11 48 9 88 88 Calm 30.03 1017 10 16 0.00 0.00
6:57 pm 18:57 Cloudy 51 10.6 48 8.9 89 89 SE 3 6 30.05 1018 10 16 0.00 0.00
7:10 pm 19:10 Cloudy 52 11 48 9 88 88 Calm 30.06 1018 10 16 0.00 0.00
7:43 pm 19:43 Cloudy 52 11 48 9 88 88 SE 6 9 30.06 1018 10 16 0.00 0.00
7:57 pm 19:57 Cloudy with Light Rain 51 10.6 49 9.4 92 92 ESE 5 7 30.08 1019 4 6 0.00 0.03
8:32 pm 20:32 Cloudy with Mist and Fog 50 10 48 9 94 94 Calm 30.09 1019 5 8 0.00 0.03
8:49 pm 20:49 Cloudy 50 10 48 9 94 94 Calm 30.09 1019 7 11 0.00 0.00
8:57 pm 20:57 Cloudy 50 10 49 9.4 96 96 E 3 6 30.10 1019 7 11 0.00 0.03
9:13 pm 21:13 Cloudy 50 10 48 9 94 94 E 5 7 30.09 1019 10 16 0.00 0.00
9:29 pm 21:29 Cloudy 50 10 48 9 94 94 E 5 7 30.09 1019 10 16 0.00 0.00
9:57 pm 21:57 Cloudy 50 10 49 9.4 96 96 E 7 11 30.11 1020 10 16 0.00 0.00
10:40 pm 22:40 Cloudy 50 10 48 9 94 94 E 7 11 30.09 1019 10 16 0.00 0.00
10:57 pm 22:57 Cloudy 50 10 49 9.4 96 96 E 5 7 30.10 1019 10 16 0.00 0.00
11:57 pm 23:57 Cloudy 50 10 49 9.4 96 96 ENE 9 15 30.10 1019 10 16 0.00 0.00

Powered by AerisWeather